Location: Hemaruka
(51.7801°N, 111.0917°W)
Time: 05:47:37
(UTC+00:00)

Tiangong - Visible Passes

Search period start: 15 April 2024 00:00
Search period end: 25 April 2024 00:00
Orbit: 371 x 381 km, 41.5° (Epoch: 14 April)

Date Brightness Start Highest point End Pass type
(mag) Time Alt. Az. Time Alt. Az. Time Alt. Az.
20 Apr 0.3 04:10:32 10° SSW 04:10:56 11° SSW 04:10:56 11° SSW visible
21 Apr 0.2 03:08:51 10° S 03:09:45 11° S 03:10:39 10° SSE visible
22 Apr 0.0 03:41:56 10° SSW 03:43:24 13° S 03:44:14 12° SSE visible
23 Apr 0.3 04:16:09 10° SSW 04:16:46 11° SSW 04:16:46 11° SSW visible
24 Apr 0.2 03:13:29 10° SSW 03:14:52 12° S 03:16:14 10° SSE visible
